STARLINK-33920, 63710

Orbit data source: Space-Track

STARLINK-33920, 63710 is a payload satellite owned by SpaceX/Seattle (US) in LEO that was launched on Mon, 28 Apr 2025 UTC via an FALCON 9 launch vehicle from the Air Force Western Test Range (AFWTR). Payload-class satellites include a variety of spacecraft equipped with specific instruments for various scientific and technological missions. These include communications satellites like Starlink; space stations such as the ISS; scientific satellites like the Hubble; Earth observation satellites from companies like Planet Labs, Umbra, and HawkEye 360; GPS; miniature CubeSats for education and research; and military/defense satellites.

Loading next visibility...
Identifier
63710, 2025-087P
Orbit
LEO
Country
Flag of USUS
Related business
Manufacturer
SpaceX/Seattle
Mission
Operational Commercial Communications
Bus & Motor
STARLINK V2MO, Unknown motor
Mass
575 kg wet, ~530 kg dry
Launch date (UTC)
2025-04-28 (8 months ago)
Launch vehicle
FALCON 9
Launch site
Air Force Western Test Range (AFWTR)
Object type
Payload
Rocket body
Debris
Shape & HBR
Box + 2 Pan, 17.7 m
Radar Cross Section
36.964 m², Large (>1 m²)

Expand to show TLE details & history
Last TLE update: 17 hours ago

TLE from 17 hours ago
0 STARLINK-33920
1 63710U 25087P   25348.89264764  .00026063  00000-0  88923-3 0  9997
2 63710  53.1574 253.6573 0001431  47.1299 312.9821 15.30192425 36216
Epoch: 2025-12-14T21:25Z
TLE epoch observation values (Epoch: 2025-12-14T21:25:24.756Z)
Latitude
-0.00006°
Longitude
-151.49494°
Altitude
475.469 km
Speed
7.63 km/s
True Right ascension
16h 54m 37s
True Declination
0° 00' 00"
Sunlit
Object was in daylight at epoch
Visualization orbit readout
Latitude
Unknown
Longitude
Unknown
Altitude
Unknown
Speed
Unknown
Apparent Right ascension
Unknown
Apparent Declination
Unknown
Sunlit
N/A
Visualization observer readout
Local Sidereal Time
13:22:46
Azimuth
Unknown
Elevation
Unknown
Doppler factor
Unknown
Orbital elements
Apogee altitude
476.475 km
Perigee altitude
474.514 km
Semi-major axis
6,853.632 km
Eccentricity
0.00014
Inclination
53.1574°
RAAN
253.6573°
Arg. of periapsis
47.1299°
True anomaly
312.9701°
Mean anomaly
312.9821°
Eccentric anomaly
312.9761°
Mean motion
3.82527 °/min
Orbital period
94.11 mins
BSTAR
0.00088923
Loading maneuver chart data...
Computing Atmospheric mass density...
Loading historical data...
Loading historical data...
Loading historical data...
Loading historical data...
Loading historical data...
Loading historical data...
Loading historical data...

Documentation

Showing up to 5 results
|